Lid_Strength_Index
13 11 11 11 11 11 12 13 13 13 13 11 10 9 9 9 8 8 8 7 7 7 6 5 5 5 4 3 3 3 3 2 2 2 1 1 1 1 1 1 1 1 1 1
13 11 11 12 11 11 11 12 11 11 13 9 8 8 8 8 8 8 7 7 7 7 6 5 4 4 3 2 2 1 3 4 3 3 1 1 1 1 1 1 1 1 1 1
15 13 12 13 11 12 11 11 12 13 12 8 9 9 8 8 8 7 6 6 5 5 5 4 4 3 3 3 1 2 2 2 2 2 2 1 1 1 1 1 1 1 1 1
15 14 18 12 9 9 11 10 9 10 9 10 11 10 10 9 9 8 7 6 4 4 4 3 3 3 2 2 2 2 2 2 1 1 2 1 1 1 1 1 1 1 1 1
16 17 14 12 10 10 12 12 10 9 9 10 9 8 10 8 8 8 8 6 6 5 4 4 3 3 3 3 3 2 2 2 1 1 2 1 2 2 1 1 1 1 1 1
17 17 17 13 8 7 8 15 9 9 9 8 8 12 11 7 7 6 6 5 5 5 5 5 5 4 5 4 4 4 2 2 1 1 1 1 1 2 1 1 2 1 1 1
16 17 15 10 9 8 14 12 10 9 10 10 11 10 9 8 7 6 6 6 5 6 6 6 5 5 5 5 5 4 3 2 1 1 1 1 1 1 1 1 2 2 4 5
15 16 16 8 8 11 10 9 9 9 10 10 9 8 8 8 8 8 8 7 6 7 6 6 5 6 6 6 5 4 3 1 1 1 1 1 1 1 1 2 2 2 4 5
13 13 9 9 9 8 8 8 8 8 8 8 8 7 7 8 8 7 7 6 5 5 5 4 4 4 4 4 3 3 2 2 2 1 1 1 2 2 2 2 2 2 3 4
12 10 9 9 8 7 7 8 7 7 6 6 7 7 7 7 7 6 6 6 5 5 5 5 4 3 3 3 2 2 3 2 2 2 2 1 1 1 2 2 3 3 3 3
12 10 9 8 8 7 7 7 7 6 6 6 6 6 6 6 6 6 5 5 5 5 5 5 4 4 3 3 3 3 3 2 2 2 2 2 2 2 2 2 2 2 2 2
12 9 9 9 7 6 7 7 6 6 6 5 5 6 6 6 6 6 6 6 6 5 5 5 4 4 3 2 2 3 3 2 2 2 2 2 2 2 4 5 8 9 10 9
8 8 8 7 6 5 6 5 5 5 5 6 6 6 5 6 5 4 4 4 4 4 4 4 4 3 2 2 1 2 2 2 2 3 2 2 2 3 3 3 9 11 11 12
7 6 7 6 7 5 5 5 5 5 5 5 5 4 4 5 5 5 5 4 4 4 3 3 2 2 2 2 2 2 2 3 2 2 2 2 2 2 3 3 3 3 9 10
6 6 7 7 6 6 5 5 5 6 6 5 5 5 5 5 4 4 3 3 3 3 3 2 3 3 2 2 2 2 2 2 2 2 2 2 2 2 2 3 3 3 3 8
6 6 7 7 5 5 5 4 6 6 5 5 5 4 4 4 4 4 3 3 4 4 4 3 4 3 2 2 2 2 2 2 2 2 2 2 2 3 3 3 3 3 3 3
7 8 7 6 6 5 5 5 5 5 5 5 4 4 4 4 4 4 4 4 4 4 4 4 4 3 2 2 2 2 2 2 2 2 2 2 2 3 3 3 3 3 3 3
6 6 6 6 6 6 5 4 4 4 5 4 3 4 4 5 5 5 4 4 4 4 4 3 3 3 2 2 2 2 2 2 2 2 2 2 2 2 2 3 3 3 2 5
5 5 5 5 4 5 5 5 5 4 4 4 4 4 4 5 5 5 5 4 5 6 5 4 3 3 3 2 1 2 2 2 2 2 2 3 3 2 2 3 3 2 3 6
5 4 4 5 4 5 5 5 4 4 4 4 4 5 6 5 5 5 5 5 4 4 4 3 3 4 3 2 1 2 2 2 2 3 3 2 3 3 3 4 3 3 4 5
5 5 5 4 5 5 5 4 4 5 4 4 5 6 5 5 5 5 5 6 5 4 4 4 3 2 2 2 2 2 2 3 3 3 3 3 3 3 3 3 4 5 5 6
5 5 5 5 5 5 5 4 4 4 4 5 5 4 5 5 5 5 5 5 5 5 5 4 3 2 2 2 2 3 3 4 4 4 4 4 4 4 4 5 5 6 6 6
5 5 5 5 6 5 4 4 3 3 4 5 5 4 4 4 4 6 7 4 4 5 5 5 5 4 3 4 4 4 4 4 4 4 4 4 5 5 5 5 5 5 5 6
5 5 5 4 4 4 4 4 4 3 3 4 4 4 3 4 3 3 4 5 5 5 5 5 5 5 5 5 5 4 5 5 5 4 4 6 5 5 5 5 6 5 6 7
5 5 4 5 5 5 4 4 4 4 3 4 4 3 3 3 3 3 3 4 5 5 4 5 4 5 5 5 5 5 5 6 6 5 5 5 5 5 5 6 5 6 6 7
5 5 5 5 5 4 4 4 4 4 3 4 3 3 3 3 3 2 2 4 4 5 5 5 5 4 4 4 4 5 5 4 5 5 5 5 5 5 5 6 6 5 6 6
5 6 5 4 5 5 4 4 4 4 4 3 3 2 3 3 3 3 4 3 3 3 4 5 5 5 5 4 4 4 4 5 6 4 4 5 5 5 5 5 6 6 6 6